Voltar ao catálogo

STARLINK-33657

AtivoComunicaçõesVLEO
NORAD 63370·PAYLOAD·🇺🇸 United States

Lançado Mar 26, 2025 de Vandenberg Space Force Base

Loading…

Próximas Passagens (próximas 24 horas)

TLE

AtualizadoSource: CelesTrak SupGP

Época: Sep 14, 2026, 20:54 UTC

1 63370C 25063H   26257.87131944  .00055953  00000+0  16533-2 0  2577
2 63370  53.1570 248.1113 0001340  95.0323 250.0122 15.34358982    13

Acompanhe STARLINK-33657 em tempo real com AllMySat

Download on the App Store